Weather Roundup
Issued by NWS

Home | Current Version | Previous Version | Text Only | Print | Product List | Glossary On
Versions: 1 2 3 4 5 6 7 8 9 10 11 12 13 14 15 16 17 18 19 20 21 22 23 24 25 26 27 28 29 30 31 32 33 34 35 36 37 38 39 40 41 42 43 44 45 46 47 48 49 50
000
NZUS93 KARX 270410
HRRWXR

CURRENT HOURLY OBSERVATIONS ACROSS
MUCH OF THE UPPER MISSISSIPPI VALLEY
NATIONAL WEATHER SERVICE LA CROSSE WI
1000 PM CST WED NOV 26 2014


...SOUTHEAST MINNESOTA...


CITY           SKY/WX    TMP DP  RH WIND       PRES   REMARKS
ROCHESTER      CLOUDY    21  15  78 NW13      30.27R WCI   9
ROCHESTER/MAYO CLOUDY    22  16  78 NW13      30.28R WCI  10
WINONA         CLOUDY    27  23  86 NW6       30.29R WCI  20
AUSTIN         FLURRIES  19  16  86 NW14      30.29R WCI   6
ALBERT LEA     CLOUDY    16  12  86 NW8       30.31R WCI   5
DODGE CENTER   LGT SNOW  21  18  86 NW10      30.28R WCI  10
PRESTON        CLOUDY    21  18  86 N8        30.26R WCI  12
OWATONNA       CLOUDY    19  12  73 NW14      30.31R WCI   6
FARIBAULT      CLOUDY    19  12  73 NW9       30.33R WCI   9
$$

...ELSEWHERE IN MINNESOTA...


CITY           SKY/WX    TMP DP  RH WIND       PRES   REMARKS
MINNEAPOLIS    FLURRIES  17   9  70 N14       30.35R WCI   3
INTNL FALLS    CLEAR     -8 -13  78 NW5       30.42S WCI -19
DULUTH         CLEAR      2  -6  69 N9        30.32R WCI -13
RED WING       CLOUDY    21  12  68 N5        30.31R WCI  15
REDWOOD FALLS  MOCLDY     5  -2  72 NW10      30.42R WCI -10
MANKATO        CLOUDY    14   9  79 NW16      30.35R WCI  -2
WORTHINGTON    CLOUDY     7   0  72 N18       30.38R WCI -12
FAIRMONT       CLOUDY     9   3  78 NW18      30.35S WCI -10
$$

...SOUTHWEST WISCONSIN...


CITY           SKY/WX    TMP DP  RH WIND       PRES   REMARKS
LA CROSSE      CLOUDY    26  21  81 NW9       30.27R WCI  17
PRAIRIE DU CHI FLURRIES  26  22  86 NW6       30.26R WCI  19
BOSCOBEL       LGT SNOW  21  18  88 CALM      30.25S FOG
LONE ROCK      CLOUDY    19  13  77 W5        30.23S HAZE    WCI  12
PLATTEVILLE    PTCLDY    20  18  92 CALM      30.22S
FORT MC COY    PTCLDY    23  20  89 NW5       30.25R WCI  17
CAMP DOUGLAS   FLURRIES  23  23 100 NW9       30.22R WCI  13
VIROQUA        CLOUDY    22  22 100 NW9       30.21R WCI  12
WIS DELLS      PTCLDY    15  14  94 W3        30.20R FOG
$$

...ELSEWHERE IN WISCONSIN...


CITY           SKY/WX    TMP DP  RH WIND       PRES   REMARKS
MILWAUKEE      MOCLDY    25  18  74 NW13      30.18R WCI  14
MADISON        PTCLDY    15  12  88 CALM      30.20S FOG
GREEN BAY      LGT SNOW  21  18  88 W7        30.18S FOG     WCI  12
EAU CLAIRE     CLOUDY    20  14  77 N8        30.28R WCI  10
BLACK RVR FLS  LGT SNOW  23  23 100 NW5       30.24R WCI  16
MEDFORD        CLOUDY    19  15  83 NW8       30.19R WCI   9
WAUSAU         MOCLDY    21  16  81 NW9       30.17R WCI  11
WIS RAPIDS     CLOUDY    23  18  81 NW7       30.22R WCI  15
MARSHFIELD     CLOUDY    23  18  81 NW13      30.19R WCI  11
RICE LAKE      CLOUDY    17  10  73 N9G16     30.31R WCI   5
$$

...NORTHEAST IOWA...


CITY           SKY/WX    TMP DP  RH WIND       PRES   REMARKS
DECORAH        CLOUDY    23  21  93 NW8       30.24R WCI  14
MASON CITY     CLOUDY    17  13  84 NW20      30.33R WCI   1
CHARLES CITY   CLOUDY    23  19  86 N14       30.28R WCI  11
OELWEIN        CLOUDY    25  21  86 NW8       30.27R WCI  16
$$

...ELSEWHERE IN IOWA...


CITY           SKY/WX    TMP DP  RH WIND       PRES   REMARKS
DES MOINES     FLURRIES  24  20  84 NW13      30.33R WCI  12
IOWA CITY      CLOUDY    27  24  89 N9        30.27R WCI  18
FORT DODGE     CLOUDY    18  12  79 NW8G16    30.36S WCI   7
$$

...NORTHERN ILLINOIS...


CITY           SKY/WX    TMP DP  RH WIND       PRES   REMARKS
CHICAGO-OHARE  CLOUDY    28  23  81 NW10      30.16S WCI  19
CHICAGO-MIDWAY CLOUDY    31  24  75 NW8       30.16S WCI  23
MOLINE         CLOUDY    27  20  75 N3        30.24R
ROCKFORD       CLOUDY    22  17  81 N13       30.23R HAZE    WCI  10
PEORIA         CLOUDY    28  21  75 N9        30.21R WCI  19
$$

NOTE: "FAIR" INDICATES FEW OR NO CLOUDS BELOW 12,000 FEET WITH NO
SIGNIFICANT WEATHER AND/OR OBSTRUCTIONS TO VISIBILITY. WIND
SPEEDS ARE IN MILES-PER-HOUR.



USA.gov is the U.S. government's official web portal to all federal, state and local government web resources and services.